Location: Charbonni�res
(45.9952°N, 2.9982°E)
Time: 18:15:12
(UTC+00:00)

Cosmos 1500 Rocket - Pass Details

Date: 29 November 2020
Orbit: 604 x 631 km, 82.5° (Epoch: 18 January)

Event Time Altitude Azimuth Distance (km) Brightness Sun altitude
Rises 06:07:39 0° 213° (SSW) 2,846 6.8 -10.2°
Reaches altitude 10° 06:10:03 10° 224° (SW) 1,948 5.9 -9.8°
Maximum altitude 06:13:53 30° 287° (WNW) 1,084 4.3 -9.2°
Drops below altitude 10° 06:17:44 10° 349° (N) 1,969 5.8 -8.5°
Sets 06:20:12 0° 0° (N) 2,882 6.8 -8.1°
